This is the latest recevied weather packets stored in our database for station/object OM2RC-6. If no packets are shown the sender has not sent any weather packets the latest 10 day(s).
| Time | Temp. | Humidity | Pressure | Rain* | Wind** | Luminosity | Snow |
|---|---|---|---|---|---|---|---|
| 1777509277 | 0.56° C | 92% | 1030.8 hPa | - | - | - | - |
| 1777508975 | 0.56° C | 91% | 1030.8 hPa | - | - | - | - |
| 1777508675 | 0.56° C | 91% | 1030.7 hPa | - | - | - | - |
| 1777508373 | 0.56° C | 91% | 1030.8 hPa | - | - | - | - |
| 1777508072 | 0.56° C | 93% | 1030.8 hPa | - | - | - | - |
| 1777507771 | 0.56° C | 87% | 1030.8 hPa | - | - | - | - |
| 1777507470 | 0.56° C | 89% | 1030.8 hPa | - | - | - | - |
| 1777507170 | 0.56° C | 91% | 1030.7 hPa | - | - | - | - |
| 1777506869 | 0.56° C | 92% | 1030.7 hPa | - | - | - | - |
| 1777506568 | 0.56° C | 91% | 1030.8 hPa | - | - | - | - |
| 1777505966 | 1.11° C | 88% | 1030.7 hPa | - | - | - | - |
| 1777505665 | 0.56° C | 87% | 1030.7 hPa | - | - | - | - |
| 1777505363 | 1.11° C | 83% | 1030.7 hPa | - | - | - | - |
| 1777505063 | 1.67° C | 76% | 1030.6 hPa | - | - | - | - |
| 1777504762 | 2.22° C | 71% | 1030.6 hPa | - | - | - | - |
| 1777504461 | 2.22° C | 74% | 1030.6 hPa | - | - | - | - |
| 1777504160 | 2.22° C | 73% | 1030.7 hPa | - | - | - | - |
| 1777503859 | 2.22° C | 72% | 1030.6 hPa | - | - | - | - |
| 1777503558 | 2.22° C | 71% | 1030.5 hPa | - | - | - | - |
| 1777503257 | 2.22° C | 72% | 1030.5 hPa | - | - | - | - |
| 1777502956 | 2.22° C | 73% | 1030.4 hPa | - | - | - | - |
| 1777502655 | 2.22° C | 76% | 1030.4 hPa | - | - | - | - |
| 1777502354 | 2.22° C | 76% | 1030.2 hPa | - | - | - | - |
| 1777502053 | 2.22° C | 76% | 1030.2 hPa | - | - | - | - |
| 1777501751 | 2.22° C | 76% | 1030.2 hPa | - | - | - | - |
* Rain since midnight (hover to see other rain measurements)
** Current wind speed in m/s (hover to see current wind gust speed)